Location: Carnoy
(49.9849°N, 2.7558°E)
Time: 15:59:14
(UTC+00:00)

CSL-04 Rocket - Pass Details

Date: 24 January 2020
Orbit: 806 x 860 km, 99.0° (Epoch: 19 February)

Event Time Altitude Azimuth Distance (km) Brightness Sun altitude
Rises 17:05:34 0° 129° (SE) 3,407 6.6 -6.1°
Reaches altitude 10° 17:08:10 10° 119° (ESE) 2,482 5.8 -6.5°
Maximum altitude 17:12:53 30° 60° (ENE) 1,496 4.5 -7.2°
Drops below altitude 10° 17:17:38 10° 1° (N) 2,509 6.0 -7.9°
Sets 17:20:17 0° 352° (N) 3,451 6.8 -8.3°
